FW5336 Weather Reports


Display with metric or nautical units.
time (UTC)temp
F
wind
direction
speed
MPH
gust
MPH
rain 1hr
in
rain 24hr
in
rain mn
in
humidity
%
barometer
mb
20260506150428 56 252 2.0 5.0 0.00 0.00 0.00 50
20260506145925 55 261 0.0 3.0 0.00 0.00 0.00 54
20260506145421 56 342 4.0 6.0 0.00 0.00 0.00 51
20260506144919 55 258 1.0 1.0 0.00 0.00 0.00 50
20260506144415 55 329 2.0 7.0 0.00 0.00 0.00 50
20260506143914 56 312 3.0 6.0 0.00 0.00 0.00 49
20260506143410 55 304 3.0 6.0 0.00 0.00 0.00 51
20260506142909 55 281 3.0 3.0 0.00 0.00 0.00 52
20260506142407 56 245 2.0 2.0 0.00 0.00 0.00 52
20260506141904 55 277 0.0 1.0 0.00 0.00 0.00 50
20260506141402 54 262 1.0 2.0 0.00 0.00 0.00 55
20260506140900 54 53 1.0 3.0 0.00 0.00 0.00 55
20260506140356 54 43 1.0 2.0 0.00 0.00 0.00 54
20260506135854 53 306 1.0 3.0 0.00 0.00 0.00 59
20260506135351 51 230 0.0 2.0 0.00 0.00 0.00 58
20260506134847 52 338 3.0 7.0 0.00 0.00 0.00 58
20260506134343 53 329 4.0 5.0 0.00 0.00 0.00 58
20260506133840 54 312 0.0 3.0 0.00 0.00 0.00 58
20260506133337 54 267 1.0 5.0 0.00 0.00 0.00 59
20260506132833 55 340 3.0 6.0 0.00 0.00 0.00 59
20260506132331 53 243 0.0 3.0 0.00 0.00 0.00 64
20260506131829 53 245 1.0 6.0 0.00 0.00 0.00 61
20260506131325 53 152 0.0 1.0 0.00 0.00 0.00 62
20260506130822 52 268 1.0 2.0 0.00 0.00 0.00 62
20260506130318 51 268 1.0 1.0 0.00 0.00 0.00 62
20260506125817 52 269 2.0 3.0 0.00 0.00 0.00 61
20260506125315 51 297 1.0 2.0 0.00 0.00 0.00 64
20260506124813 52 307 2.0 3.0 0.00 0.00 0.00 63
20260506124309 51 288 1.0 2.0 0.00 0.00 0.00 63
20260506123807 51 309 2.0 3.0 0.00 0.00 0.00 64
20260506123306 50 227 1.0 2.0 0.00 0.00 0.00 65
20260506122802 49 283 1.0 2.0 0.00 0.00 0.00 66
20260506122259 48 248 0.0 3.0 0.00 0.00 0.00 67
20260506121757 48 308 1.0 2.0 0.00 0.00 0.00 67
20260506121254 48 265 1.0 2.0 0.00 0.00 0.00 67
20260506120751 48 276 1.0 2.0 0.00 0.00 0.00 67
20260506120249 48 336 3.0 3.0 0.00 0.00 0.00 67
20260506115746 48 271 2.0 3.0 0.00 0.00 0.00 67
20260506115244 48 270 0.0 1.0 0.00 0.00 0.00 68
20260506114742 48 257 0.0 2.0 0.00 0.00 0.00 68
20260506114239 48 264 0.0 1.0 0.00 0.00 0.00 67
20260506113738 48 268 0.0 1.0 0.00 0.00 0.00 67
20260506113235 48 291 1.0 1.0 0.00 0.00 0.00 67
20260506112731 47 283 1.0 1.0 0.00 0.00 0.00 67
20260506112228 47 260 0.0 1.0 0.00 0.00 0.00 67
20260506111726 47 345 2.0 2.0 0.00 0.00 0.00 67
20260506111224 47 276 0.0 1.0 0.00 0.00 0.00 67
20260506110721 48 283 0.0 1.0 0.00 0.00 0.00 67
20260506110218 48 267 1.0 1.0 0.00 0.00 0.00 67
20260506105715 48 319 1.0 1.0 0.00 0.00 0.00 67
20260506105212 48 277 1.0 2.0 0.00 0.00 0.00 67
20260506104710 48 276 1.0 2.0 0.00 0.00 0.00 66
20260506104207 47 267 1.0 2.0 0.00 0.00 0.00 67
20260506103704 47 257 0.0 1.0 0.00 0.00 0.00 67
20260506103201 47 272 0.0 1.0 0.00 0.00 0.00 67
20260506102659 47 272 0.0 1.0 0.00 0.00 0.00 67
20260506102156 47 267 0.0 1.0 0.00 0.00 0.00 68
20260506101653 47 259 0.0 0.0 0.00 0.00 0.00 68
20260506101150 47 266 0.0 1.0 0.00 0.00 0.00 68
20260506100648 47 266 1.0 1.0 0.00 0.00 0.00 68
20260506100146 47 258 0.0 0.0 0.00 0.00 0.00 69
20260506095644 47 291 1.0 1.0 0.00 0.00 0.00 70
20260506095140 47 274 0.0 1.0 0.00 0.00 0.00 71
20260506094638 47 258 0.0 0.0 0.00 0.00 0.00 70
20260506094136 47 258 0.0 0.0 0.00 0.00 0.00 70
20260506093634 47 245 0.0 0.0 0.00 0.00 0.00 70
20260506093131 47 260 0.0 1.0 0.00 0.00 0.00 71
20260506092629 47 258 0.0 0.0 0.00 0.00 0.00 71
20260506092126 47 229 0.0 1.0 0.00 0.00 0.00 71
20260506091624 47 257 0.0 0.0 0.00 0.00 0.00 70
20260506091121 47 254 0.0 0.0 0.00 0.00 0.00 71
20260506090619 47 254 0.0 0.0 0.00 0.00 0.00 71
20260506090115 47 272 1.0 1.0 0.00 0.00 0.00 70
20260506085612 47 252 0.0 0.0 0.00 0.00 0.00 73
20260506085108 47 257 0.0 0.0 0.00 0.00 0.00 73
20260506084605 47 266 0.0 1.0 0.00 0.00 0.00 74
20260506084101 47 257 0.0 0.0 0.00 0.00 0.00 75
20260506083559 47 254 0.0 1.0 0.00 0.00 0.00 76
20260506083056 47 260 0.0 1.0 0.00 0.00 0.00 78
20260506082552 47 256 0.0 0.0 0.00 0.00 0.00 80
20260506082048 47 258 0.0 1.0 0.00 0.00 0.00 81
20260506081546 47 269 0.0 1.0 0.00 0.00 0.00 83
20260506081043 47 288 1.0 1.0 0.00 0.00 0.00 84
20260506080541 47 288 0.0 0.0 0.00 0.00 0.00 85
20260506073525 47 268 0.0 0.0 0.00 0.00 0.00 85
20260506073021 47 264 0.0 0.0 0.00 0.00 0.00 85
20260506072519 47 260 0.0 1.0 0.00 0.00 0.00 85
20260506072016 47 252 0.0 2.0 0.00 0.00 0.00 85
20260506071514 47 262 0.0 0.0 0.00 0.00 0.00 85
20260506071011 47 260 0.0 0.0 0.00 0.00 0.00 86
20260506070509 47 231 0.0 0.0 0.00 0.00 0.00 86
20260506062446 47 246 0.0 1.0 0.00 0.00 0.00 86
20260506061942 47 251 0.0 1.0 0.00 0.00 0.00 86
20260506061438 47 254 0.0 1.0 0.00 0.00 0.00 86
20260506060936 47 249 0.0 1.0 0.00 0.00 0.00 86
20260506060434 47 254 0.0 1.0 0.00 0.00 0.00 87
20260506051406 48 254 0.0 1.0 0.00 0.00 0.00 85
20260506050903 48 254 0.0 0.0 0.00 0.00 0.00 85
20260506050401 48 249 0.0 1.0 0.00 0.00 0.00 85
20260506044851 48 253 0.0 0.0 0.00 0.00 0.00 85
20260506044349 48 246 0.0 0.0 0.00 0.00 0.00 85
20260506043846 48 247 0.0 1.0 0.00 0.00 0.00 85
20260506043343 48 250 0.0 1.0 0.00 0.00 0.00 86
20260506042841 47 217 1.0 1.0 0.00 0.00 0.00 87
20260506042340 48 227 1.0 1.0 0.00 0.00 0.00 88
20260506041838 48 247 0.0 0.0 0.00 0.00 0.00 89
20260506041335 48 242 0.0 0.0 0.00 0.00 0.00 88
20260506040832 48 244 0.0 0.0 0.00 0.00 0.00 88
20260506040330 48 246 0.0 0.0 0.00 0.00 0.00 87
20260506035826 47 246 0.0 0.0 0.00 0.08 0.08 87
20260506035323 47 246 0.0 0.0 0.00 0.08 0.08 86
20260506034820 47 242 0.0 0.0 0.00 0.08 0.08 86
20260506034317 47 234 0.0 0.0 0.00 0.08 0.08 86
20260506033814 47 245 0.0 0.0 0.00 0.08 0.08 85
20260506033311 47 240 0.0 0.0 0.00 0.08 0.08 85
20260506032808 47 245 0.0 0.0 0.00 0.08 0.08 85
20260506032306 47 244 0.0 0.0 0.00 0.08 0.08 85
20260506031802 48 241 0.0 0.0 0.00 0.08 0.08 85
20260506031259 48 242 0.0 0.0 0.00 0.08 0.08 85
20260506030757 48 236 0.0 0.0 0.00 0.08 0.08 84
20260506030254 48 242 0.0 0.0 0.00 0.08 0.08 84
20260506025751 48 245 0.0 0.0 0.05 0.08 0.08 84
20260506025247 48 246 0.0 0.0 0.05 0.08 0.08 83
20260506024744 48 246 0.0 0.0 0.00 0.07 0.07 82
20260506024241 48 244 0.0 0.0 0.00 0.07 0.07 82
20260506023737 48 241 0.0 0.0 0.00 0.07 0.07 81
20260506023234 48 243 0.0 0.0 0.00 0.07 0.07 80
20260506022731 48 237 0.0 0.0 0.07 0.07 0.07 78
20260506022229 49 244 0.0 0.0 0.07 0.07 0.07 77
20260506021727 49 242 0.0 0.0 0.00 0.06 0.06 75
20260506021224 49 235 0.0 0.0 0.00 0.06 0.06 74
20260506020720 49 244 0.0 0.0 0.00 0.06 0.06 73
20260506020218 50 223 0.0 1.0 0.00 0.06 0.06 71
20260506015716 51 239 0.0 0.0 0.05 0.06 0.06 66
20260506015213 51 274 1.0 1.0 0.05 0.06 0.06 62
20260506014710 51 266 0.0 1.0 0.00 0.05 0.05 61
20260506014206 52 252 0.0 1.0 0.00 0.05 0.05 62
20260506013704 52 252 0.0 1.0 0.00 0.05 0.05 60
20260506013201 53 250 0.0 1.0 0.00 0.05 0.05 59
20260506012657 52 266 1.0 2.0 0.00 0.05 0.05 55
20260506012154 52 258 0.0 1.0 0.00 0.05 0.05 58
20260506011651 52 249 0.0 1.0 0.00 0.05 0.05 58
20260506011147 53 252 0.0 1.0 0.00 0.05 0.05 58
20260506010646 53 251 0.0 1.0 0.00 0.05 0.05 58
20260506010143 53 265 0.0 1.0 0.00 0.05 0.05 56
20260506005640 53 251 0.0 2.0 0.00 0.05 0.05 54
20260506005136 53 275 0.0 1.0 0.00 0.05 0.05 54
20260506004632 53 254 1.0 1.0 0.00 0.05 0.05 53
20260506004129 54 268 0.0 1.0 0.00 0.05 0.05 54
20260506003620 54 254 1.0 2.0 0.00 0.05 0.05 53
20260506003117 54 245 0.0 2.0 0.00 0.05 0.05 53
20260506002613 54 284 1.0 2.0 0.00 0.05 0.05 54
20260506002109 54 294 1.0 3.0 0.00 0.05 0.05 52
20260506001605 54 277 1.0 3.0 0.00 0.05 0.05 52
20260506001102 54 292 1.0 3.0 0.00 0.05 0.05 51
20260506000600 54 317 1.0 5.0 0.00 0.05 0.05 52
20260506000057 54 250 1.0 3.0 0.00 0.05 0.05 53
20260505235555 54 289 1.0 2.0 0.00 0.05 0.05 52
20260505235052 54 252 0.0 3.0 0.00 0.05 0.05 53
20260505234549 54 291 1.0 2.0 0.00 0.05 0.05 53
20260505234045 55 298 2.0 5.0 0.00 0.05 0.05 53
20260505233543 55 256 0.0 2.0 0.00 0.05 0.05 54
20260505233040 55 254 1.0 1.0 0.00 0.05 0.05 55
20260505232538 55 273 1.0 5.0 0.00 0.05 0.05 55
20260505232035 55 255 0.0 2.0 0.00 0.05 0.05 56
20260505231532 55 277 1.0 5.0 0.00 0.05 0.05 57
20260505231031 55 291 1.0 2.0 0.00 0.05 0.05 59
20260505230528 55 271 2.0 3.0 0.00 0.05 0.05 59
20260505230024 55 252 1.0 3.0 0.00 0.05 0.05 60
20260505225521 55 248 1.0 1.0 0.00 0.05 0.05 62
20260505225017 55 293 2.0 5.0 0.00 0.05 0.05 62
20260505224514 55 278 1.0 3.0 0.00 0.05 0.05 63
20260505224011 55 241 0.0 2.0 0.00 0.05 0.05 63
20260505223508 55 298 3.0 3.0 0.00 0.05 0.05 64
20260505223004 55 261 2.0 2.0 0.00 0.05 0.05 66
20260505222501 55 289 1.0 2.0 0.00 0.05 0.05 66
20260505221956 55 287 1.0 2.0 0.00 0.05 0.05 66
20260505221454 55 325 1.0 2.0 0.00 0.05 0.05 67
20260505220951 55 310 2.0 3.0 0.00 0.05 0.05 67
20260505220448 55 258 2.0 2.0 0.00 0.05 0.05 67
20260505215945 55 317 3.0 3.0 0.00 0.05 0.05 66
20260505215444 55 178 2.0 2.0 0.00 0.05 0.05 67
20260505214941 55 260 1.0 2.0 0.00 0.05 0.05 66
20260505214438 55 288 1.0 2.0 0.00 0.05 0.05 66
20260505213936 55 225 3.0 3.0 0.00 0.05 0.05 66
20260505213433 55 264 3.0 5.0 0.00 0.05 0.05 66
20260505212929 55 264 2.0 5.0 0.00 0.05 0.05 65
20260505212427 55 267 3.0 5.0 0.00 0.05 0.05 65
20260505211923 55 279 1.0 3.0 0.00 0.05 0.05 65
20260505211420 55 258 0.0 3.0 0.00 0.05 0.05 65
20260505210916 55 323 0.0 2.0 0.00 0.05 0.05 65
20260505210414 55 236 2.0 3.0 0.00 0.05 0.05 65
20260505205910 55 259 2.0 3.0 0.00 0.05 0.05 65
20260505205409 55 270 2.0 3.0 0.00 0.05 0.05 65
20260505204905 56 336 4.0 5.0 0.00 0.05 0.05 65
20260505204403 56 268 2.0 3.0 0.00 0.05 0.05 64
20260505203859 56 287 1.0 6.0 0.00 0.05 0.05 64
20260505203356 56 273 1.0 2.0 0.00 0.05 0.05 64
20260505202852 56 253 1.0 3.0 0.00 0.05 0.05 65
20260505202349 56 284 4.0 5.0 0.00 0.05 0.05 64
20260505201845 56 267 0.0 3.0 0.00 0.05 0.05 64
20260505201343 56 261 3.0 7.0 0.00 0.05 0.05 65
20260505200841 56 261 2.0 5.0 0.00 0.05 0.05 65
20260505200337 55 250 0.0 2.0 0.00 0.05 0.05 66
20260505195833 55 237 2.0 6.0 0.00 0.05 0.05 66
20260505195330 55 193 1.0 2.0 0.00 0.05 0.05 66
20260505194827 55 255 0.0 3.0 0.00 0.05 0.05 67
20260505194325 55 276 2.0 3.0 0.00 0.05 0.05 67
20260505193820 55 248 1.0 5.0 0.00 0.05 0.05 67
20260505193318 55 239 1.0 1.0 0.00 0.05 0.05 67
20260505192816 55 262 1.0 9.0 0.00 0.05 0.05 67
20260505192314 55 289 2.0 5.0 0.00 0.05 0.05 68
20260505191811 55 271 1.0 8.0 0.00 0.05 0.05 67
20260505191309 55 314 5.0 7.0 0.00 0.05 0.05 67
20260505190806 55 267 2.0 8.0 0.00 0.05 0.05 65
20260505190301 55 254 3.0 6.0 0.00 0.05 0.05 65
20260505185757 55 296 3.0 7.0 0.00 0.05 0.05 66
20260505185254 56 31 3.0 3.0 0.00 0.05 0.05 65
20260505184750 56 252 0.0 3.0 0.00 0.05 0.05 64
20260505184247 56 262 4.0 9.0 0.00 0.05 0.05 63
20260505183744 56 259 4.0 5.0 0.00 0.05 0.05 65
20260505183241 56 277 3.0 7.0 0.00 0.05 0.05 64
20260505182738 56 225 2.0 6.0 0.00 0.05 0.05 66
20260505182235 56 261 1.0 8.0 0.00 0.05 0.05 67
20260505181731 56 236 2.0 8.0 0.00 0.05 0.05 67
20260505181229 56 242 3.0 7.0 0.00 0.05 0.05 69
20260505180725 56 257 4.0 9.0 0.00 0.05 0.05 71
20260505180222 56 277 4.0 9.0 0.00 0.05 0.05 73
20260505175718 56 332 4.0 6.0 0.00 0.05 0.05 73
20260505175214 56 269 4.0 6.0 0.00 0.05 0.05 75
20260505174711 55 326 3.0 7.0 0.00 0.05 0.05 76
20260505174208 54 318 2.0 7.0 0.00 0.05 0.05 77
20260505173704 54 252 3.0 6.0 0.00 0.05 0.05 78
20260505173201 53 285 1.0 3.0 0.00 0.05 0.05 78
20260505172658 53 250 2.0 5.0 0.00 0.05 0.05 77
20260505172155 54 287 2.0 3.0 0.00 0.05 0.05 78
20260505171654 54 254 1.0 7.0 0.07 0.05 0.05 78
20260505171152 54 315 2.0 3.0 0.07 0.05 0.05 76
20260505170649 54 250 1.0 5.0 0.00 0.04 0.04 75
20260505170147 54 295 2.0 3.0 0.00 0.04 0.04 73
20260505165647 55 278 4.0 6.0 0.00 0.04 0.04 71
20260505165143 55 290 5.0 7.0 0.00 0.04 0.04 69
20260505164638 56 295 3.0 5.0 0.00 0.04 0.04 66
20260505164136 57 304 3.0 5.0 0.00 0.04 0.04 64
20260505163634 58 267 2.0 9.0 0.00 0.04 0.04 60
20260505163132 58 303 1.0 5.0 0.00 0.04 0.04 55
20260505162629 59 258 2.0 7.0 0.00 0.04 0.04 52
20260505162127 59 291 3.0 7.0 0.00 0.04 0.04 51
20260505161624 59 308 4.0 8.0 0.00 0.04 0.04 50
20260505161121 60 273 2.0 7.0 0.00 0.04 0.04 51
20260505160618 60 12 3.0 5.0 0.00 0.04 0.04 51
20260505160116 61 311 4.0 7.0 0.00 0.04 0.04 50
20260505153055 60 297 1.0 2.0 0.00 0.04 0.04 53
20260505152552 61 290 3.0 3.0 0.00 0.04 0.04 51
20260505152047 60 254 2.0 6.0 0.00 0.04 0.04 51
20260505151542 60 265 1.0 2.0 0.00 0.04 0.04 53
20260505151040 61 263 1.0 5.0 0.00 0.04 0.04 50